This is the latest recevied weather packets stored in our database for station/object DD3UTS-13. If no packets are shown the sender has not sent any weather packets the latest 10 day(s).
| Time | Temp. | Humidity | Pressure | Rain* | Wind** | Luminosity | Snow |
|---|---|---|---|---|---|---|---|
| 1777659332 | 20.56° C | 37% | 1025 hPa | 0 mm | - | 18 W/m² | - |
| 1777659032 | 20.56° C | 37% | 1024.9 hPa | 0 mm | - | 24 W/m² | - |
| 1777658732 | 21.11° C | 36% | 1024.9 hPa | 0 mm | - | 107 W/m² | - |
| 1777658432 | 21.67° C | 36% | 1024.8 hPa | 0 mm | - | 154 W/m² | - |
| 1777658133 | 21.67° C | 36% | 1024.8 hPa | 0 mm | - | 185 W/m² | - |
| 1777657831 | 21.67° C | 35% | 1024.7 hPa | 0 mm | - | 230 W/m² | - |
| 1777657532 | 21.67° C | 35% | 1024.8 hPa | 0 mm | - | 254 W/m² | - |
| 1777657232 | 21.67° C | 35% | 1024.8 hPa | 0 mm | - | 278 W/m² | - |
| 1777656932 | 21.67° C | 36% | 1024.9 hPa | 0 mm | - | 308 W/m² | - |
| 1777656632 | 21.67° C | 35% | 1024.9 hPa | 0 mm | - | 329 W/m² | - |
| 1777656332 | 21.67° C | 35% | 1024.9 hPa | 0 mm | - | 350 W/m² | - |
| 1777656033 | 21.67° C | 36% | 1025 hPa | 0 mm | - | 366 W/m² | - |
| 1777655732 | 22.22° C | 35% | 1025.1 hPa | 0 mm | - | 377 W/m² | - |
| 1777655431 | 22.22° C | 34% | 1025.2 hPa | 0 mm | - | 357 W/m² | - |
| 1777655132 | 21.67° C | 34% | 1025.2 hPa | 0 mm | - | 415 W/m² | - |
| 1777654832 | 21.67° C | 34% | 1025.4 hPa | 0 mm | - | 428 W/m² | - |
| 1777654532 | 22.22° C | 34% | 1025.4 hPa | 0 mm | - | 433 W/m² | - |
| 1777654232 | 22.78° C | 34% | 1025.5 hPa | 0 mm | - | 443 W/m² | - |
| 1777653932 | 22.78° C | 34% | 1025.5 hPa | 0 mm | - | 451 W/m² | - |
| 1777653631 | 22.78° C | 34% | 1025.5 hPa | 0 mm | - | 450 W/m² | - |
| 1777653331 | 22.22° C | 35% | 1025.6 hPa | 0 mm | - | 453 W/m² | - |
| 1777653031 | 21.67° C | 35% | 1025.6 hPa | 0 mm | - | 457 W/m² | - |
| 1777652731 | 22.22° C | 34% | 1025.6 hPa | 0 mm | - | 457 W/m² | - |
| 1777652432 | 21.67° C | 35% | 1025.7 hPa | 0 mm | - | 464 W/m² | - |
| 1777652131 | 21.67° C | 36% | 1025.7 hPa | 0 mm | - | 468 W/m² | - |
* Rain latest 24 hours (hover to see other rain measurements)
** Current wind speed in m/s (hover to see current wind gust speed)